Regional Weather Roundup
Issued by NWS

Home | Current Version | Previous Version | Text Only | Print | Product List | Glossary Off
Versions: 1 2 3 4 5 6 7 8 9 10 11 12 13 14 15 16 17 18 19 20 21 22 23 24 25 26 27 28 29 30 31 32 33 34 35 36 37 38 39 40 41 42 43 44 45 46 47 48 49 50

000
ASUS43 KDTX 180210
RWRMI
MICHIGAN HOURLY REGIONAL WEATHER ROUNDUP
NATIONAL WEATHER SERVICE DETROIT/PONTIAC MI
900 PM EST SUN DEC 17 2017

NOTE: "FAIR" INDICATES FEW OR NO CLOUDS BELOW 12,000 FEET WITH NO
SIGNIFICANT WEATHER AND/OR OBSTRUCTION TO VISIBILITY.

MIZ047>049-052>055-059>063-066>070-074>076-081>083-180300-
SOUTHEAST LOWER MICHIGAN

CITY           SKY/WX    TMP DP  RH WIND       PRES   REMARKS
ADRIAN         CLOUDY    32  30  92 S6        30.05S FOG     WCI  26
ALMA           CLOUDY    29  28  96 NE3       30.03S FOG
ANN ARBOR      CLOUDY    31  30  96 CALM      30.03S FOG
BAD AXE        CLOUDY    28  25  88 SE5       30.04F WCI  23
CARO           CLOUDY    27  26  96 SE3       30.04R FOG
DETROIT CITY   CLOUDY    30  29  96 CALM      30.05S FOG
DETROIT        CLOUDY    35  31  85 S6        30.05S FOG     WCI  30
FLINT          CLOUDY    31  29  92 S6        30.04R WCI  25
GROSSE ILE     CLOUDY    33  32  96 S6        30.04S FOG     WCI  27
HILLSDALE      CLOUDY    32  32 100 S6        30.01S FOG     WCI  26
HOWELL         CLOUDY    31  31  98 S5        30.02R FOG     WCI  26

CITY           SKY/WX    TMP DP  RH WIND       PRES   REMARKS
JACKSON        CLOUDY    35  30  82 S7        30.01S HAZE    WCI  29
LAMBERTVILLE   CLOUDY    35  32  90 S7        30.05S WCI  29
LANSING        CLOUDY    31  30  96 S5        30.02S FOG     WCI  26
LAPEER         CLOUDY    27  26  96 SE3       30.04R FOG
MASON          CLOUDY    32  28  86 CALM      30.01S FOG
MONROE         CLOUDY    33  30  90 S5        30.04S WCI  28
MT. CLEMENS    CLOUDY    30  29  99 E5        30.03S WCI  25
PONTIAC        CLOUDY    30  30 100 SE6       30.02R FOG     WCI  24
PORT HOPE        N/A     30  25  81 SE9       30.03F WCI  22
PORT HURON     CLOUDY    25  19  80 E5        30.05F WCI  19
TRI CITIES     CLOUDY    28  26  92 E6        30.04S FOG     WCI  22
MIDLAND        CLOUDY    28  26  90 E5        30.03F FOG     WCI  23
TROY           CLOUDY    31  29  92 CALM      30.05F
SAGINAW HB     CLOUDY    28  27  93 E3        30.04S
$$
MIZ043>046-050>051-056>058-064>065-071>073-077>080-180300-
SOUTHWEST LOWER MICHIGAN

CITY           SKY/WX    TMP DP  RH WIND       PRES   REMARKS
BATTLE CREEK   CLOUDY    34  31  88 S7        30.01R FOG     WCI  28
BENTON HARBOR  CLOUDY    39  33  79 S7        30.00S WCI  34
BIG RAPIDS     FOG       26  26  96 SE7       30.00S VSB 1   WCI  19
COLDWATER      CLOUDY    37  34  91 S7        30.02R WCI  31
HOLLAND        CLOUDY    30  27  88 E5        29.99F FOG     WCI  25
GRAND RAPIDS   CLOUDY    29  28  96 E5        30.00S FOG     WCI  24
IONIA          FAIR      29  28  96 E5        29.99F FOG     WCI  24
KALAMAZOO      CLOUDY    34  31  88 S8        30.01S WCI  27
LUDINGTON      CLOUDY    29  27  92 E3        30.00F FOG
MARSHALL       CLOUDY    33  32  96 S3        30.00S
MOUNT PLEASANT CLOUDY    28  26  92 E3        30.02S FOG
MUSKEGON       CLOUDY    31  26  82 E5        30.00F HAZE    WCI  26
SOUTH HAVEN    CLOUDY    37  32  81 S3        29.99F
$$
MIZ016>042-180300-
NORTHERN LOWER MICHIGAN

CITY           SKY/WX    TMP DP  RH WIND       PRES   REMARKS
ALPENA         CLOUDY    27  24  89 SE5       30.04F WCI  22
BEAVER ISLAND  CLOUDY    30  27  89 SE6       30.00S WCI  24
BELLAIRE       CLOUDY    28  26  95 S3        30.03R
CADILLAC       FOG       24  24  99 SE5       29.97F VSB 1   WCI  18
CHARLEVOIX     CLOUDY    28  25  91 SE3       30.04R
FRANKFORT      CLOUDY    30  28  89 S7        30.01S WCI  24
GAYLORD        CLOUDY    23  21  92 SE7       29.98S FOG     WCI  15
GRAYLING       CLOUDY    24  21  88 SE6       30.00S WCI  17
HARBOR SPRINGS CLOUDY    26  23  91 NE5       30.01S WCI  20
HOUGHTON LAKE  CLOUDY    24  21  88 SE6       30.01R WCI  17
MANISTEE       CLOUDY    29  32 100 CALM      30.02R
OSCODA         CLOUDY    30  26  83 SE6       30.03F WCI  24
PELLSTON       CLOUDY    26  23  88 SE5       30.02S WCI  20
ROGERS CITY    CLOUDY    27  23  87 S7        30.05S WCI  19
TRAVERSE CITY  CLOUDY    28  24  85 VRB5      30.01R WCI  23
$$
MIZ007>008-015-180300-
EASTERN UPPER MICHIGAN

CITY           SKY/WX    TMP DP  RH WIND       PRES   REMARKS
MACKINAC ISLAN CLOUDY    28  23  81 SE9       30.01S WCI  19
NEWBERRY       CLOUDY    17  17  97 NE3       29.99S
S. S. MARIE    FLURRIES  19  15  84 E7        30.03F WCI  10
MUNISING         N/A     26  25  96 S3        29.97S
$$
MIZ004>006-011>014-085-180300-
CENTRAL UPPER MICHIGAN

CITY           SKY/WX    TMP DP  RH WIND       PRES   REMARKS
MANISTIQUE     CLOUDY    31  26  82 S8        29.98S WCI  24
ESCANABA       CLOUDY    29  26  89 CALM      29.98S
MENOMINEE      CLOUDY    31  28  89 SW3       29.99S
SAWYER-GWINN   LGT SNOW  25  25 100 SW7       29.95S WCI  17
$$
MIZ001>003-009>011-084-180300-
WESTERN UPPER MICHIGAN

CITY           SKY/WX    TMP DP  RH WIND       PRES   REMARKS
IRON MOUNTAIN  CLOUDY    26  23  88 SE3       29.94F
HOUGHTON       CLOUDY    26  21  81 SW5       29.92S WCI  20
COPPER HARBOR    N/A     27  22  81 W3        29.94S
IRONWOOD       CLOUDY    24  22  91 SW3       29.93F
$$

ABBREVIATIONS USED IN REMARKS
   TC - TEMPERATURE IN CELSIUS
  WCI - WIND CHILL INDEX
   HX - HEAT INDEX
  VSB - VISIBILITY





USA.gov is the U.S. government's official web portal to all federal, state and local government web resources and services.